Overview Statistics Trail Chart Weather Telemetry Raw packets
 

This is the latest recevied weather packets stored in our database for station/object I8ZSE-10. If no packets are shown the sender has not sent any weather packets the latest 10 day(s).

<< 9 10 11 12 13 14 15 >>
Time Temp. Humidity Pressure Rain* Wind** Luminosity Snow
1788510630 25° C 41% - 0 mm - - -
1788510030 24.44° C 41% - 0 mm - - -
1788509430 24.44° C 41% - 0 mm - - -
1788508831 23.89° C 42% - 0 mm - - -
1788508230 23.33° C 43% - 0 mm - - -
1788507630 22.78° C 42% - 0 mm - - -
1788507030 22.78° C 44% - 0 mm - - -
1788506430 22.22° C 45% - 0 mm - - -
1788505530 21.67° C 46% - 0 mm - - -
1788504930 21.67° C 47% - 0 mm - - -
1788504330 21.11° C 47% - 0 mm - - -
1788503730 21.11° C 47% - 0 mm - - -
1788503131 21.11° C 48% - 0 mm - - -
1788502530 20.56° C 49% - 0 mm - - -
1788501930 18.89° C 55% - 0 mm - - -
1788501330 18.89° C 54% - 0 mm - - -
1788500730 18.89° C 54% - 0 mm - - -
1788500130 18.33° C 58% - 0 mm - - -
1788499530 18.33° C 57% - 0 mm - - -
1788498930 17.78° C 59% - 0 mm - - -
1788498330 18.33° C 57% - 0 mm - - -
1788497730 18.33° C 58% - 0 mm - - -
1788497130 18.33° C 57% - 0 mm - - -
1788496530 18.33° C 58% - 0 mm - - -
1788495930 18.33° C 58% - 0 mm - - -

* Rain latest hour (hover to see other rain measurements)
** Current wind speed in m/s (hover to see current wind gust speed)